Location: *
(40.4000°N, 15.1200°E)
Time: 06:04:51
(UTC+00:00)

USA 186 - Pass Details

Date: 09 April 2020
Orbit: 263 x 446 km, 96.9° (Epoch: 25 May)

Event Time Altitude Azimuth Distance (km) Brightness Sun altitude
Exits shadow 17:59:55 - 143° (SE) 2,195 4.9 -5.9°
Reaches altitude 10° 18:01:36 10° 133° (SE) 1,535 4.1 -6.2°
Maximum altitude 18:04:25 27° 74° (ENE) 850 2.8 -6.7°
Drops below altitude 10° 18:07:09 10° 14° (NNE) 1,474 4.6 -7.2°
Sets 18:09:15 0° 2° (N) 2,303 5.7 -7.6°
